QPF
0.00 0.00 0.01 0.02 0.04 0.04 0.04 0.03 0.02 0.02 0.01 0.01 0.01 0.02 0.01 0.01 0.01 0.02 0.03 0.03 0.04 0.05 0.05 0.03 0.02 0.02 0.01 0.01 0.01 0.02 0.01 0.02 0.02 0.02 0.02 0.02 0.02 0.01 0.01 0.01 0.01 0.00 0.01
0.00 0.01 0.01 0.02 0.03 0.03 0.03 0.02 0.02 0.02 0.02 0.02 0.01 0.01 0.02 0.01 0.01 0.02 0.03 0.04 0.05 0.06 0.05 0.03 0.01 0.01 0.01 0.01 0.01 0.01 0.01 0.01 0.02 0.01 0.01 0.01 0.01 0.01 0.01 0.01 0.01 0.01 0.01
0.00 0.01 0.01 0.01 0.02 0.02 0.02 0.01 0.01 0.02 0.02 0.02 0.02 0.02 0.02 0.02 0.02 0.02 0.03 0.03 0.04 0.06 0.06 0.03 0.01 0.01 0.01 0.01 0.01 0.01 0.00 0.00 0.01 0.01 0.00 0.00 0.00 0.01 0.01 0.01 0.01 0.01 0.01
0.00 0.00 0.01 0.01 0.02 0.01 0.01 0.01 0.01 0.01 0.02 0.02 0.03 0.02 0.02 0.02 0.02 0.02 0.02 0.02 0.03 0.04 0.04 0.03 0.02 0.01 0.01 0.01 0.00 0.01 0.00 0.00 0.00 0.00 0.00 0.00 0.00 0.00 0.00 0.01 0.01 0.01 0.02
0.00 0.00 0.01 0.01 0.02 0.02 0.02 0.01 0.01 0.01 0.01 0.02 0.03 0.03 0.02 0.02 0.02 0.02 0.02 0.02 0.03 0.04 0.04 0.03 0.02 0.01 0.01 0.01 0.00 0.00 0.00 0.00 0.00 0.00 0.00 0.00 0.00 0.00 0.01 0.01 0.01 0.01 0.01
0.00 0.00 0.01 0.01 0.02 0.02 0.02 0.01 0.01 0.01 0.01 0.01 0.02 0.04 0.03 0.02 0.02 0.02 0.02 0.02 0.03 0.03 0.04 0.04 0.03 0.01 0.01 0.01 0.01 0.01 0.01 0.01 0.00 0.00 0.00 0.00 0.00 0.01 0.01 0.01 0.01 0.01 0.01
0.00 0.00 0.00 0.01 0.02 0.02 0.02 0.02 0.02 0.02 0.02 0.01 0.01 0.03 0.03 0.03 0.03 0.02 0.02 0.03 0.03 0.04 0.04 0.05 0.04 0.02 0.01 0.01 0.01 0.01 0.01 0.00 0.00 0.00 0.00 0.00 0.00 0.01 0.01 0.01 0.01 0.01 0.01
0.01 0.01 0.01 0.01 0.01 0.02 0.02 0.01 0.02 0.02 0.02 0.01 0.01 0.02 0.03 0.03 0.02 0.02 0.01 0.02 0.03 0.04 0.05 0.05 0.03 0.02 0.02 0.02 0.01 0.01 0.01 0.00 0.00 0.00 0.00 0.00 0.00 0.01 0.01 0.02 0.02 0.02 0.01
0.00 0.01 0.01 0.01 0.01 0.01 0.02 0.02 0.02 0.02 0.02 0.01 0.01 0.02 0.03 0.03 0.02 0.01 0.01 0.01 0.03 0.04 0.04 0.05 0.04 0.03 0.02 0.01 0.01 0.01 0.01 0.00 0.00 0.00 0.00 0.00 0.00 0.01 0.02 0.02 0.02 0.02 0.02
0.00 0.00 0.00 0.01 0.01 0.01 0.01 0.02 0.02 0.03 0.03 0.02 0.01 0.02 0.03 0.04 0.02 0.01 0.01 0.01 0.02 0.03 0.04 0.04 0.04 0.04 0.03 0.02 0.02 0.02 0.01 0.00 0.00 0.00 0.00 0.00 0.00 0.01 0.02 0.02 0.02 0.02 0.02
0.00 0.00 0.01 0.01 0.02 0.02 0.02 0.02 0.02 0.03 0.03 0.03 0.02 0.02 0.03 0.04 0.03 0.02 0.01 0.01 0.02 0.02 0.03 0.04 0.03 0.04 0.03 0.03 0.03 0.02 0.01 0.00 0.00 0.00 0.00 0.00 0.00 0.01 0.02 0.02 0.02 0.02 0.02
0.01 0.00 0.01 0.01 0.01 0.01 0.02 0.03 0.03 0.04 0.04 0.03 0.03 0.03 0.04 0.03 0.03 0.02 0.01 0.01 0.02 0.02 0.03 0.04 0.05 0.05 0.03 0.03 0.03 0.03 0.02 0.01 0.00 0.00 0.00 0.00 0.00 0.01 0.02 0.03 0.03 0.02 0.02
0.01 0.01 0.00 0.00 0.00 0.01 0.01 0.01 0.02 0.02 0.03 0.03 0.03 0.03 0.04 0.04 0.03 0.02 0.01 0.01 0.02 0.03 0.03 0.03 0.03 0.03 0.03 0.03 0.03 0.03 0.02 0.01 0.00 0.00 0.00 0.00 0.00 0.01 0.02 0.03 0.03 0.03 0.03
0.01 0.01 0.01 0.00 0.00 0.00 0.00 0.01 0.01 0.01 0.01 0.01 0.01 0.02 0.03 0.03 0.03 0.03 0.02 0.02 0.01 0.02 0.03 0.03 0.03 0.02 0.02 0.02 0.02 0.03 0.03 0.02 0.01 0.00 0.00 0.00 0.00 0.01 0.02 0.03 0.04 0.04 0.04
0.01 0.01 0.01 0.01 0.00 0.00 0.00 0.01 0.01 0.01 0.01 0.01 0.01 0.02 0.02 0.03 0.03 0.02 0.02 0.02 0.02 0.02 0.02 0.03 0.03 0.03 0.02 0.02 0.02 0.03 0.03 0.02 0.01 0.01 0.00 0.00 0.00 0.01 0.01 0.02 0.03 0.04 0.05
0.02 0.02 0.01 0.01 0.00 0.00 0.00 0.00 0.01 0.01 0.01 0.01 0.01 0.02 0.02 0.02 0.02 0.01 0.01 0.01 0.01 0.01 0.02 0.02 0.03 0.03 0.03 0.02 0.02 0.03 0.03 0.02 0.02 0.01 0.01 0.00 0.00 0.00 0.01 0.02 0.03 0.04 0.05
0.02 0.02 0.02 0.01 0.01 0.01 0.00 0.00 0.00 0.01 0.01 0.01 0.02 0.02 0.02 0.01 0.01 0.01 0.01 0.01 0.00 0.01 0.01 0.02 0.02 0.03 0.03 0.02 0.02 0.02 0.03 0.03 0.02 0.01 0.01 0.01 0.00 0.00 0.01 0.01 0.02 0.04 0.05
0.02 0.02 0.03 0.02 0.02 0.01 0.01 0.00 0.00 0.01 0.01 0.01 0.02 0.03 0.02 0.01 0.01 0.01 0.01 0.01 0.00 0.00 0.01 0.01 0.02 0.03 0.03 0.03 0.02 0.02 0.02 0.02 0.02 0.01 0.02 0.01 0.00 0.00 0.01 0.01 0.01 0.03 0.04
0.02 0.02 0.02 0.03 0.02 0.02 0.01 0.01 0.00 0.01 0.02 0.02 0.02 0.03 0.03 0.02 0.01 0.01 0.01 0.02 0.01 0.01 0.01 0.01 0.01 0.03 0.04 0.04 0.03 0.02 0.03 0.03 0.02 0.02 0.01 0.01 0.01 0.00 0.00 0.01 0.01 0.02 0.03
0.03 0.02 0.02 0.02 0.03 0.03 0.03 0.02 0.02 0.01 0.02 0.04 0.03 0.03 0.03 0.02 0.01 0.01 0.01 0.02 0.02 0.01 0.01 0.01 0.01 0.02 0.03 0.04 0.05 0.04 0.02 0.02 0.03 0.02 0.02 0.02 0.01 0.01 0.00 0.01 0.01 0.01 0.03
0.03 0.03 0.03 0.03 0.02 0.03 0.03 0.02 0.02 0.03 0.04 0.04 0.03 0.03 0.03 0.03 0.02 0.01 0.01 0.01 0.02 0.02 0.02 0.02 0.02 0.02 0.03 0.04 0.05 0.05 0.04 0.03 0.03 0.02 0.02 0.02 0.02 0.01 0.01 0.01 0.01 0.01 0.01
0.03 0.05 0.07 0.04 0.02 0.03 0.03 0.02 0.03 0.04 0.04 0.05 0.04 0.03 0.03 0.04 0.03 0.02 0.02 0.02 0.01 0.01 0.02 0.02 0.02 0.02 0.03 0.04 0.04 0.05 0.05 0.05 0.04 0.03 0.02 0.02 0.02 0.01 0.01 0.01 0.01 0.02 0.02
0.06 0.05 0.06 0.04 0.04 0.03 0.03 0.03 0.03 0.05 0.07 0.07 0.06 0.05 0.04 0.03 0.03 0.03 0.03 0.04 0.03 0.02 0.01 0.01 0.01 0.02 0.02 0.04 0.04 0.05 0.05 0.04 0.03 0.03 0.02 0.02 0.01 0.01 0.01 0.01 0.01 0.02 0.02
0.07 0.06 0.04 0.03 0.03 0.04 0.04 0.03 0.03 0.05 0.08 0.09 0.08 0.07 0.04 0.03 0.04 0.03 0.04 0.05 0.06 0.04 0.02 0.02 0.02 0.02 0.02 0.03 0.04 0.04 0.04 0.04 0.03 0.02 0.02 0.02 0.01 0.01 0.01 0.01 0.01 0.01 0.02
0.04 0.06 0.07 0.04 0.02 0.03 0.03 0.03 0.04 0.04 0.07 0.10 0.11 0.10 0.07 0.05 0.05 0.04 0.04 0.05 0.07 0.07 0.05 0.03 0.02 0.02 0.02 0.03 0.05 0.06 0.05 0.03 0.03 0.02 0.02 0.02 0.02 0.01 0.01 0.02 0.01 0.01 0.01
0.02 0.03 0.04 0.05 0.03 0.02 0.03 0.03 0.04 0.04 0.05 0.06 0.09 0.10 0.10 0.08 0.06 0.05 0.05 0.05 0.06 0.05 0.05 0.04 0.04 0.03 0.02 0.02 0.04 0.06 0.06 0.06 0.04 0.03 0.02 0.02 0.02 0.01 0.01 0.02 0.02 0.01 0.01
MSLP
1012.19 1012.23 1012.38 1012.64 1012.97 1013.34 1013.70 1014.00 1014.23 1014.39 1014.50 1014.61 1014.74 1014.93 1015.17 1015.45 1015.74 1016.00 1016.22 1016.38 1016.49 1016.57 1016.65 1016.76 1016.90 1017.07 1017.27 1017.47 1017.64 1017.78 1017.87 1017.93 1017.96 1017.99 1018.01 1018.03 1018.06 1018.06 1018.05 1018.02 1017.97 1017.90 1017.85
1011.87 1011.99 1012.20 1012.52 1012.89 1013.28 1013.65 1013.96 1014.19 1014.35 1014.48 1014.62 1014.79 1015.02 1015.31 1015.64 1015.96 1016.26 1016.49 1016.66 1016.77 1016.85 1016.92 1017.02 1017.15 1017.32 1017.51 1017.70 1017.86 1018.00 1018.10 1018.16 1018.21 1018.25 1018.28 1018.31 1018.34 1018.35 1018.33 1018.29 1018.22 1018.15 1018.08
1011.48 1011.67 1011.96 1012.34 1012.77 1013.20 1013.60 1013.93 1014.18 1014.36 1014.51 1014.67 1014.87 1015.14 1015.46 1015.81 1016.16 1016.47 1016.71 1016.88 1016.99 1017.06 1017.12 1017.21 1017.34 1017.50 1017.69 1017.88 1018.05 1018.20 1018.31 1018.39 1018.45 1018.50 1018.55 1018.59 1018.61 1018.62 1018.59 1018.54 1018.46 1018.38 1018.30
1011.10 1011.35 1011.71 1012.15 1012.64 1013.13 1013.57 1013.93 1014.20 1014.40 1014.57 1014.75 1014.97 1015.25 1015.58 1015.95 1016.31 1016.62 1016.86 1017.03 1017.13 1017.20 1017.26 1017.35 1017.48 1017.65 1017.85 1018.06 1018.24 1018.41 1018.54 1018.63 1018.71 1018.77 1018.82 1018.86 1018.87 1018.86 1018.82 1018.76 1018.67 1018.58 1018.50
1010.79 1011.10 1011.50 1012.00 1012.54 1013.08 1013.56 1013.95 1014.25 1014.47 1014.65 1014.83 1015.05 1015.33 1015.67 1016.03 1016.39 1016.70 1016.94 1017.11 1017.21 1017.29 1017.37 1017.47 1017.62 1017.81 1018.02 1018.25 1018.46 1018.64 1018.78 1018.90 1018.98 1019.05 1019.09 1019.11 1019.11 1019.08 1019.02 1018.94 1018.84 1018.75 1018.68
1010.64 1010.96 1011.40 1011.92 1012.50 1013.07 1013.57 1013.99 1014.30 1014.53 1014.71 1014.90 1015.12 1015.39 1015.72 1016.08 1016.42 1016.73 1016.97 1017.15 1017.27 1017.36 1017.46 1017.58 1017.75 1017.96 1018.20 1018.45 1018.68 1018.88 1019.04 1019.16 1019.25 1019.30 1019.33 1019.34 1019.31 1019.25 1019.17 1019.07 1018.97 1018.88 1018.81
1010.65 1010.97 1011.40 1011.93 1012.51 1013.08 1013.59 1014.01 1014.33 1014.56 1014.75 1014.94 1015.16 1015.43 1015.76 1016.11 1016.45 1016.75 1017.00 1017.18 1017.31 1017.42 1017.54 1017.69 1017.88 1018.11 1018.37 1018.63 1018.88 1019.09 1019.25 1019.38 1019.46 1019.50 1019.52 1019.49 1019.44 1019.36 1019.26 1019.14 1019.04 1018.95 1018.89
1010.82 1011.11 1011.51 1012.00 1012.55 1013.10 1013.59 1014.00 1014.31 1014.55 1014.75 1014.95 1015.18 1015.47 1015.80 1016.15 1016.49 1016.80 1017.04 1017.23 1017.37 1017.50 1017.63 1017.79 1017.99 1018.23 1018.50 1018.76 1019.01 1019.22 1019.39 1019.51 1019.58 1019.62 1019.61 1019.57 1019.50 1019.40 1019.28 1019.16 1019.05 1018.97 1018.92
1011.07 1011.32 1011.66 1012.11 1012.61 1013.11 1013.56 1013.94 1014.25 1014.49 1014.71 1014.94 1015.20 1015.51 1015.86 1016.22 1016.57 1016.87 1017.12 1017.30 1017.45 1017.57 1017.70 1017.86 1018.06 1018.30 1018.55 1018.81 1019.05 1019.25 1019.41 1019.53 1019.60 1019.63 1019.62 1019.58 1019.49 1019.38 1019.26 1019.13 1019.02 1018.95 1018.91
1011.31 1011.51 1011.81 1012.20 1012.63 1013.08 1013.49 1013.84 1014.14 1014.39 1014.64 1014.90 1015.21 1015.56 1015.94 1016.32 1016.67 1016.98 1017.22 1017.39 1017.52 1017.63 1017.75 1017.90 1018.08 1018.30 1018.54 1018.78 1019.00 1019.19 1019.35 1019.46 1019.54 1019.57 1019.57 1019.53 1019.45 1019.34 1019.22 1019.09 1018.98 1018.91 1018.87
1011.44 1011.63 1011.90 1012.23 1012.61 1013.00 1013.36 1013.69 1013.98 1014.26 1014.54 1014.85 1015.20 1015.60 1016.01 1016.41 1016.78 1017.08 1017.30 1017.46 1017.58 1017.67 1017.78 1017.90 1018.06 1018.26 1018.47 1018.69 1018.89 1019.07 1019.22 1019.34 1019.42 1019.47 1019.48 1019.46 1019.40 1019.30 1019.19 1019.06 1018.95 1018.87 1018.83
1011.42 1011.62 1011.87 1012.18 1012.52 1012.87 1013.19 1013.50 1013.79 1014.09 1014.40 1014.76 1015.16 1015.59 1016.03 1016.46 1016.82 1017.12 1017.34 1017.49 1017.60 1017.68 1017.77 1017.89 1018.03 1018.21 1018.40 1018.60 1018.78 1018.95 1019.09 1019.20 1019.30 1019.36 1019.39 1019.39 1019.36 1019.28 1019.18 1019.06 1018.95 1018.86 1018.80
1011.22 1011.45 1011.73 1012.03 1012.36 1012.67 1012.98 1013.27 1013.57 1013.88 1014.22 1014.61 1015.05 1015.51 1015.97 1016.40 1016.77 1017.07 1017.29 1017.44 1017.55 1017.64 1017.74 1017.86 1018.01 1018.19 1018.37 1018.55 1018.72 1018.87 1018.99 1019.10 1019.20 1019.27 1019.32 1019.35 1019.33 1019.28 1019.19 1019.08 1018.96 1018.86 1018.78
1010.86 1011.14 1011.46 1011.78 1012.11 1012.42 1012.71 1013.00 1013.30 1013.62 1013.98 1014.38 1014.83 1015.30 1015.77 1016.20 1016.58 1016.88 1017.11 1017.29 1017.42 1017.55 1017.69 1017.85 1018.02 1018.21 1018.39 1018.57 1018.72 1018.85 1018.95 1019.05 1019.13 1019.20 1019.26 1019.30 1019.30 1019.27 1019.20 1019.10 1018.98 1018.86 1018.77
1010.38 1010.72 1011.08 1011.43 1011.77 1012.09 1012.39 1012.68 1012.97 1013.30 1013.66 1014.06 1014.51 1014.97 1015.42 1015.85 1016.22 1016.54 1016.80 1017.02 1017.22 1017.41 1017.61 1017.83 1018.05 1018.27 1018.47 1018.65 1018.78 1018.88 1018.96 1019.01 1019.07 1019.12 1019.17 1019.21 1019.23 1019.21 1019.16 1019.07 1018.96 1018.84 1018.74
1009.83 1010.21 1010.60 1010.98 1011.33 1011.66 1011.98 1012.27 1012.58 1012.90 1013.26 1013.65 1014.06 1014.50 1014.93 1015.34 1015.72 1016.06 1016.37 1016.65 1016.93 1017.21 1017.50 1017.79 1018.08 1018.34 1018.57 1018.74 1018.86 1018.93 1018.96 1018.97 1018.98 1018.99 1019.02 1019.05 1019.07 1019.06 1019.03 1018.97 1018.87 1018.77 1018.66
1009.23 1009.62 1010.02 1010.41 1010.78 1011.14 1011.47 1011.79 1012.11 1012.43 1012.78 1013.15 1013.54 1013.94 1014.34 1014.74 1015.12 1015.48 1015.84 1016.20 1016.56 1016.94 1017.32 1017.70 1018.06 1018.38 1018.63 1018.81 1018.90 1018.94 1018.92 1018.87 1018.83 1018.80 1018.78 1018.79 1018.81 1018.82 1018.81 1018.77 1018.70 1018.62 1018.54
1008.59 1008.95 1009.33 1009.72 1010.11 1010.49 1010.86 1011.22 1011.56 1011.90 1012.25 1012.60 1012.96 1013.33 1013.70 1014.08 1014.47 1014.86 1015.26 1015.69 1016.14 1016.61 1017.08 1017.54 1017.97 1018.33 1018.60 1018.78 1018.87 1018.87 1018.81 1018.72 1018.62 1018.54 1018.49 1018.47 1018.47 1018.49 1018.50 1018.49 1018.46 1018.41 1018.35
1007.88 1008.19 1008.54 1008.92 1009.32 1009.74 1010.15 1010.56 1010.95 1011.33 1011.69 1012.04 1012.38 1012.73 1013.08 1013.44 1013.82 1014.24 1014.68 1015.17 1015.68 1016.22 1016.76 1017.28 1017.76 1018.16 1018.46 1018.65 1018.74 1018.72 1018.64 1018.51 1018.38 1018.26 1018.17 1018.13 1018.12 1018.13 1018.15 1018.17 1018.18 1018.16 1018.13
1007.10 1007.34 1007.65 1008.02 1008.44 1008.89 1009.37 1009.84 1010.30 1010.73 1011.13 1011.50 1011.84 1012.17 1012.50 1012.86 1013.24 1013.66 1014.14 1014.65 1015.21 1015.79 1016.37 1016.93 1017.44 1017.87 1018.19 1018.41 1018.51 1018.51 1018.44 1018.31 1018.16 1018.02 1017.91 1017.85 1017.82 1017.82 1017.84 1017.87 1017.90 1017.90 1017.90
1006.24 1006.42 1006.70 1007.06 1007.50 1008.01 1008.56 1009.11 1009.65 1010.15 1010.60 1010.99 1011.35 1011.68 1012.01 1012.36 1012.74 1013.17 1013.65 1014.18 1014.75 1015.34 1015.93 1016.50 1017.03 1017.47 1017.83 1018.08 1018.23 1018.28 1018.25 1018.15 1018.03 1017.90 1017.78 1017.69 1017.64 1017.62 1017.63 1017.65 1017.67 1017.68 1017.68
1005.33 1005.49 1005.75 1006.12 1006.60 1007.17 1007.79 1008.42 1009.04 1009.61 1010.12 1010.55 1010.93 1011.28 1011.61 1011.96 1012.34 1012.76 1013.24 1013.76 1014.31 1014.89 1015.47 1016.03 1016.55 1017.02 1017.41 1017.72 1017.94 1018.06 1018.10 1018.08 1018.01 1017.90 1017.79 1017.69 1017.61 1017.56 1017.53 1017.52 1017.52 1017.52 1017.50
1004.45 1004.62 1004.89 1005.29 1005.81 1006.43 1007.12 1007.82 1008.51 1009.15 1009.70 1010.18 1010.59 1010.95 1011.30 1011.65 1012.03 1012.44 1012.90 1013.40 1013.92 1014.47 1015.01 1015.55 1016.06 1016.54 1016.98 1017.35 1017.65 1017.87 1018.02 1018.09 1018.09 1018.03 1017.94 1017.83 1017.72 1017.63 1017.55 1017.49 1017.45 1017.41 1017.36
1003.70 1003.92 1004.23 1004.66 1005.22 1005.89 1006.62 1007.37 1008.11 1008.78 1009.38 1009.89 1010.32 1010.70 1011.06 1011.42 1011.80 1012.20 1012.65 1013.11 1013.60 1014.10 1014.60 1015.10 1015.60 1016.09 1016.55 1016.99 1017.38 1017.71 1017.97 1018.14 1018.22 1018.22 1018.15 1018.04 1017.90 1017.75 1017.62 1017.50 1017.41 1017.32 1017.24
1003.19 1003.47 1003.83 1004.30 1004.89 1005.58 1006.33 1007.10 1007.85 1008.54 1009.15 1009.67 1010.12 1010.52 1010.89 1011.26 1011.64 1012.04 1012.47 1012.91 1013.36 1013.81 1014.26 1014.73 1015.20 1015.68 1016.17 1016.66 1017.12 1017.54 1017.90 1018.16 1018.31 1018.37 1018.32 1018.20 1018.03 1017.85 1017.66 1017.49 1017.34 1017.22 1017.11
1002.96 1003.32 1003.73 1004.24 1004.84 1005.53 1006.27 1007.03 1007.76 1008.44 1009.04 1009.55 1010.00 1010.41 1010.79 1011.17 1011.56 1011.97 1012.38 1012.80 1013.21 1013.62 1014.02 1014.44 1014.88 1015.34 1015.83 1016.35 1016.86 1017.34 1017.76 1018.09 1018.30 1018.39 1018.36 1018.24 1018.05 1017.82 1017.59 1017.38 1017.20 1017.05 1016.92
Thickness
5710 5712 5714 5714 5714 5715 5715 5715 5715 5715 5715 5716 5716 5716 5716 5716 5717 5717 5718 5718 5718 5719 5719 5719 5719 5719 5719 5719 5719 5719 5719 5719 5719 5718 5718 5718 5717 5717 5717 5717 5716 5716 5716
5709 5709 5710 5710 5710 5711 5711 5711 5711 5711 5711 5712 5712 5712 5712 5712 5713 5713 5713 5714 5714 5715 5715 5715 5715 5715 5715 5715 5714 5714 5714 5714 5714 5714 5714 5714 5713 5714 5714 5713 5713 5713 5713
5705 5705 5706 5706 5706 5706 5706 5707 5707 5707 5707 5707 5708 5708 5708 5708 5709 5709 5709 5709 5710 5710 5711 5711 5711 5710 5710 5710 5710 5710 5710 5710 5710 5710 5709 5709 5710 5710 5710 5710 5710 5710 5709
5700 5700 5701 5701 5701 5701 5701 5701 5701 5702 5702 5702 5703 5703 5703 5703 5704 5704 5704 5705 5705 5705 5705 5706 5706 5706 5706 5706 5706 5706 5706 5705 5705 5705 5705 5705 5705 5706 5706 5706 5706 5706 5706
5695 5695 5696 5696 5696 5696 5696 5696 5696 5696 5697 5697 5698 5698 5698 5698 5699 5699 5699 5699 5700 5700 5701 5701 5701 5701 5701 5701 5701 5701 5701 5701 5700 5700 5700 5700 5701 5702 5702 5702 5703 5702 5702
5689 5689 5690 5691 5690 5690 5690 5690 5690 5691 5691 5692 5692 5692 5693 5693 5693 5693 5693 5694 5694 5695 5695 5695 5695 5696 5695 5696 5696 5696 5695 5695 5695 5695 5695 5696 5696 5697 5698 5698 5698 5698 5698
5682 5683 5684 5684 5685 5684 5684 5684 5684 5685 5685 5686 5686 5686 5686 5687 5687 5687 5687 5688 5689 5689 5690 5690 5690 5690 5690 5690 5691 5690 5690 5690 5690 5690 5690 5691 5691 5693 5694 5694 5694 5694 5694
5676 5676 5676 5677 5678 5678 5678 5678 5678 5678 5678 5679 5679 5680 5680 5680 5680 5681 5681 5682 5683 5683 5684 5684 5684 5685 5685 5685 5685 5685 5685 5685 5685 5685 5685 5686 5686 5688 5689 5689 5690 5690 5690
5668 5668 5669 5670 5670 5670 5671 5671 5671 5671 5671 5672 5672 5673 5673 5673 5673 5674 5674 5675 5676 5677 5677 5678 5678 5678 5679 5679 5679 5679 5679 5679 5679 5679 5680 5681 5681 5682 5684 5684 5685 5685 5686
5659 5660 5661 5662 5663 5663 5663 5664 5664 5664 5664 5664 5664 5665 5665 5665 5665 5666 5667 5668 5669 5670 5670 5671 5671 5672 5672 5672 5672 5672 5673 5673 5673 5673 5674 5675 5676 5677 5678 5679 5680 5680 5681
5650 5651 5652 5654 5655 5655 5656 5655 5655 5656 5656 5656 5656 5657 5657 5658 5658 5658 5659 5660 5661 5662 5663 5663 5664 5664 5664 5664 5665 5665 5665 5665 5666 5667 5667 5669 5670 5671 5673 5674 5674 5675 5676
5641 5643 5644 5645 5646 5647 5647 5647 5647 5647 5648 5648 5648 5649 5649 5650 5650 5651 5651 5652 5653 5653 5654 5655 5655 5656 5656 5657 5657 5657 5657 5658 5659 5660 5661 5662 5663 5665 5666 5668 5668 5669 5670
5633 5635 5636 5637 5638 5639 5639 5639 5639 5639 5639 5640 5640 5641 5641 5642 5642 5643 5643 5643 5644 5645 5646 5647 5647 5647 5648 5649 5649 5649 5650 5650 5651 5652 5653 5654 5656 5658 5659 5661 5662 5663 5664
5624 5626 5627 5628 5629 5630 5631 5631 5630 5631 5631 5632 5632 5633 5633 5633 5634 5634 5635 5635 5635 5636 5637 5638 5638 5639 5640 5640 5641 5641 5642 5642 5643 5644 5645 5647 5648 5650 5652 5653 5655 5656 5657
5615 5616 5618 5620 5620 5621 5622 5622 5622 5622 5623 5623 5624 5625 5625 5626 5626 5626 5626 5626 5626 5627 5628 5629 5629 5630 5631 5631 5632 5633 5634 5634 5635 5636 5637 5639 5640 5642 5643 5645 5647 5648 5649
5606 5608 5608 5610 5612 5612 5612 5613 5613 5614 5614 5615 5615 5616 5617 5617 5617 5617 5617 5617 5617 5618 5618 5619 5620 5621 5622 5622 5623 5624 5625 5626 5627 5628 5629 5630 5632 5633 5634 5636 5638 5640 5641
5597 5598 5599 5600 5602 5603 5603 5604 5604 5605 5605 5605 5606 5607 5608 5608 5609 5609 5608 5608 5608 5608 5609 5609 5610 5611 5612 5613 5613 5614 5615 5617 5618 5619 5620 5621 5622 5623 5625 5626 5628 5630 5632
5588 5588 5589 5591 5592 5593 5593 5594 5594 5595 5596 5596 5597 5598 5598 5599 5599 5599 5599 5598 5598 5599 5599 5600 5600 5601 5601 5602 5603 5604 5606 5607 5608 5610 5611 5611 5613 5613 5615 5616 5618 5620 5622
5578 5578 5579 5580 5581 5582 5583 5583 5584 5585 5585 5586 5587 5588 5589 5589 5590 5589 5589 5588 5588 5588 5589 5590 5590 5589 5590 5592 5593 5595 5596 5597 5598 5600 5601 5601 5602 5603 5604 5605 5607 5609 5610
5568 5568 5570 5570 5571 5571 5571 5572 5573 5574 5575 5576 5577 5578 5579 5579 5579 5579 5578 5578 5578 5578 5578 5578 5578 5578 5579 5580 5582 5584 5585 5587 5588 5589 5590 5591 5592 5592 5593 5594 5595 5597 5598
5557 5557 5558 5559 5560 5561 5561 5561 5562 5563 5564 5566 5567 5568 5568 5569 5569 5569 5568 5567 5567 5567 5566 5566 5567 5567 5566 5568 5569 5571 5574 5577 5578 5578 5579 5579 5580 5581 5582 5583 5584 5585 5587
5546 5547 5548 5550 5550 5551 5552 5552 5553 5553 5554 5556 5556 5557 5558 5558 5559 5559 5558 5557 5556 5556 5555 5554 5555 5554 5554 5555 5556 5557 5561 5564 5566 5568 5567 5568 5568 5569 5570 5571 5572 5574 5575
5536 5537 5539 5540 5541 5542 5542 5542 5542 5542 5543 5544 5545 5545 5546 5547 5548 5547 5547 5547 5546 5545 5544 5544 5544 5544 5543 5543 5544 5545 5547 5550 5551 5555 5556 5556 5556 5556 5557 5559 5560 5562 5564
5527 5528 5530 5530 5531 5532 5532 5532 5533 5532 5533 5534 5534 5535 5535 5536 5536 5536 5536 5536 5536 5535 5534 5533 5533 5533 5533 5532 5533 5534 5535 5536 5537 5541 5543 5543 5544 5545 5545 5547 5549 5550 5553
5517 5518 5518 5520 5521 5521 5521 5522 5522 5522 5522 5522 5523 5523 5524 5525 5525 5525 5525 5524 5524 5524 5524 5523 5523 5523 5522 5523 5523 5523 5523 5523 5525 5527 5532 5532 5532 5533 5534 5535 5538 5540 5541
5507 5507 5507 5509 5510 5511 5511 5511 5512 5511 5511 5511 5511 5512 5512 5513 5513 5513 5514 5513 5513 5513 5513 5513 5513 5512 5512 5512 5512 5513 5513 5514 5515 5515 5518 5520 5521 5523 5524 5525 5527 5528 5530